WA2GUG Weather Reports


time (UTC)temp
F
wind
direction
speed
knots
gust
knots
rain 1hr
in
rain 24hr
in
rain mn
in
humidity
%
barometer
mb
20260906093208 0 249 0.0 0.0 0.00 0.00 0.00 99 1010.0
20260906092708 0 200 0.0 0.0 0.00 0.00 0.00 99 1010.0
20260906092208 0 109 0.0 0.0 0.00 0.00 0.00 99 1010.0
20260906091708 0 115 0.0 0.0 0.00 0.00 0.00 99 1010.0
20260906091208 0 157 0.0 0.0 0.00 0.00 0.00 99 1010.0
20260906090708 0 157 0.0 0.0 0.00 0.00 0.00 99 1009.2
20260906090208 0 146 0.0 0.0 0.00 0.00 0.00 99 1009.2
20260906085708 0 135 0.0 0.0 0.00 0.00 0.00 99 1009.1
20260906085208 0 108 0.0 0.0 0.00 0.00 0.00 99 1009.2
20260906084708 0 99 0.0 0.0 0.00 0.00 0.00 99 1009.1
20260906084208 0 135 0.0 0.0 0.00 0.00 0.00 99 1009.1
20260906083708 0 135 0.0 0.0 0.00 0.00 0.00 99 1009.1
20260906083208 0 135 0.0 0.0 0.00 0.00 0.00 99 1009.0
20260906082708 0 135 0.0 0.0 0.00 0.00 0.00 99 1009.0
20260906082208 0 135 0.0 0.0 0.00 0.00 0.00 99 1009.0
20260906081708 0 135 0.0 0.0 0.00 0.00 0.00 99 1009.0
20260906081208 0 135 0.0 0.0 0.00 0.00 0.00 99 1009.0
20260906080708 0 135 0.0 0.0 0.00 0.00 0.00 99 1009.0
20260906080208 0 135 0.0 0.0 0.00 0.00 0.00 99 1009.0
20260906075708 0 135 0.0 0.0 0.00 0.00 0.00 99 1009.0
20260906075207 58 135 0.0 0.0 0.00 0.00 0.00 99 1009.0
20260906074708 58 135 0.0 0.0 0.00 0.00 0.00 99 1009.0
20260906074208 58 135 0.0 0.0 0.00 0.00 0.00 99 1009.0
20260906073707 59 135 0.0 0.0 0.00 0.00 0.00 99 1009.0
20260906073208 59 135 0.0 0.0 0.00 0.00 0.00 99 1009.0
20260906072707 59 135 0.0 0.0 0.00 0.00 0.00 99 1009.0
20260906072207 59 132 0.0 0.0 0.00 0.00 0.00 99 1009.0
20260906071708 60 97 0.0 0.0 0.00 0.00 0.00 99 1009.0
20260906071207 60 86 0.0 0.0 0.00 0.00 0.00 99 1009.0
20260906070707 60 167 0.0 0.0 0.00 0.00 0.00 99 1009.0
20260906070207 61 313 0.0 0.0 0.00 0.00 0.00 99 1009.0
20260906065707 61 316 0.0 0.0 0.00 0.00 0.00 99 1009.0
20260906065207 61 102 0.0 0.0 0.00 0.00 0.00 99 1009.0
20260906064707 0 16 0.0 0.0 0.00 0.00 0.00 99 1009.0
20260906064207 0 88 0.0 0.0 0.00 0.00 0.00 99 1009.0
20260906063707 0 68 0.0 0.0 0.00 0.00 0.00 99 1009.0
20260906063207 60 345 0.0 0.0 0.00 0.00 0.00 99 1009.0
20260906062707 60 325 0.0 0.0 0.00 0.00 0.00 99 1009.0
20260906062207 60 113 0.0 0.0 0.00 0.00 0.00 99 1009.0
20260906061708 60 101 0.0 0.0 0.00 0.00 0.00 99 1009.0
20260906061207 60 125 0.0 0.0 0.00 0.00 0.00 99 1009.0
20260906060707 60 135 0.0 0.0 0.00 0.00 0.00 99 1009.0
20260906060207 0 106 0.0 0.0 0.00 0.00 0.00 99 1009.0
20260906055707 0 97 0.0 0.0 0.00 0.00 0.00 99 1009.0
20260906055207 0 91 0.0 0.0 0.00 0.00 0.00 99 1009.0
20260906054707 0 90 0.0 0.0 0.00 0.00 0.00 99 1009.0
20260906054207 0 84 0.0 0.0 0.00 0.00 0.00 99 1009.1
20260906053707 0 95 0.0 0.0 0.00 0.00 0.00 99 1009.2
20260906053207 0 205 0.0 0.0 0.00 0.00 0.00 99 1009.2
20260906052707 0 106 0.0 0.0 0.00 0.00 0.00 99 1010.0
20260906052207 0 115 0.0 0.0 0.00 0.00 0.00 99 1010.0
20260906051708 0 99 0.0 0.0 0.00 0.00 0.00 99 1009.2
20260906051207 0 101 0.0 0.0 0.00 0.00 0.00 99 1010.0
20260906050707 0 51 0.0 0.0 0.00 0.00 0.00 99 1010.0
20260906050207 0 16 0.0 0.0 0.00 0.00 0.00 99 1010.0
20260906045707 0 315 0.0 0.0 0.00 0.00 0.00 99 1010.0
20260906045207 0 331 0.0 0.0 0.00 0.00 0.00 99 1010.0
20260906044707 0 0 0.0 0.0 0.00 0.00 0.00 99 1010.0
20260906044207 0 125 0.0 0.0 0.00 0.00 0.00 99 1009.2
20260906043707 0 107 0.0 0.0 0.00 0.00 0.00 99 1010.0
20260906043207 0 145 0.0 0.0 0.00 0.00 0.00 99 1009.2
20260906042707 0 103 0.0 0.0 0.00 0.00 0.00 99 1009.2
20260906042207 0 48 0.0 0.0 0.00 0.00 0.00 99 1010.0
20260906041707 0 172 0.0 0.0 0.00 0.00 0.00 99 1010.0
20260906041207 0 124 0.0 0.0 0.00 0.00 0.00 99 1010.0
20260906040707 0 109 0.0 0.0 0.00 0.00 0.00 99 1010.0
20260906040207 0 349 0.0 0.0 0.00 0.00 0.00 99 1009.2
20260906035707 0 106 0.0 0.0 0.00 0.00 0.00 99 1010.0
20260906035207 0 113 0.0 0.0 0.00 0.00 0.00 99 1010.0
20260906034707 0 99 0.0 0.0 0.00 0.00 0.00 99 1010.0
20260906034207 0 112 0.0 0.0 0.00 0.00 0.00 99 1010.0
20260906033707 0 91 0.0 0.0 0.00 0.00 0.00 99 1010.0
20260906033207 0 149 0.0 0.0 0.00 0.00 0.00 99 1009.2
20260906032707 0 140 0.0 0.0 0.00 0.00 0.00 99 1009.1
20260906032207 0 118 0.0 0.0 0.00 0.00 0.00 99 1009.0
20260906031707 0 135 0.0 0.0 0.00 0.00 0.00 99 1009.0
20260906031207 0 135 0.0 0.0 0.00 0.00 0.00 99 1009.0
20260906030707 0 135 0.0 0.0 0.00 0.00 0.00 99 1009.0
20260906030207 60 159 0.0 0.0 0.00 0.00 0.00 99 1009.0
20260906025707 0 175 0.0 0.0 0.00 0.00 0.00 99 1009.0
20260906025207 0 112 0.0 0.0 0.00 0.00 0.00 99 1009.0
20260906024707 61 92 0.0 0.0 0.00 0.00 0.00 99 1009.0
20260906024207 61 86 0.0 0.0 0.00 0.00 0.00 99 1009.0
20260906023707 0 169 0.0 0.0 0.00 0.00 0.00 99 1009.0
20260906023207 0 141 0.0 0.0 0.00 0.00 0.00 99 1009.0
20260906022707 61 103 0.0 0.0 0.00 0.00 0.00 99 1009.0
20260906022207 61 71 0.0 0.0 0.00 0.00 0.00 99 1009.0
20260906021707 61 270 0.0 0.0 0.00 0.00 0.00 99 1009.0
20260906021207 61 215 0.0 0.0 0.00 0.00 0.00 99 1009.0
20260906020707 61 202 0.0 0.0 0.00 0.00 0.00 99 1009.0
20260906020207 0 199 0.0 0.0 0.00 0.00 0.00 99 1009.0
20260906015707 0 180 0.0 0.0 0.00 0.00 0.00 99 1009.0
20260906015207 60 179 0.0 0.0 0.00 0.00 0.00 99 1009.0
20260906014707 60 177 0.0 0.0 0.00 0.00 0.00 99 1009.0
20260906014207 60 184 0.0 0.0 0.00 0.00 0.00 99 1009.0
20260906013707 60 180 0.0 0.0 0.00 0.00 0.00 99 1009.0
20260906013207 60 180 0.0 0.0 0.00 0.00 0.00 99 1009.0
20260906012707 60 180 0.0 0.0 0.00 0.00 0.00 99 1009.0
20260906012207 60 226 0.0 0.0 0.00 0.00 0.00 99 1009.0
20260906011707 60 247 0.0 0.0 0.00 0.00 0.00 99 1009.0
20260906011207 60 120 0.0 0.0 0.00 0.00 0.00 99 1009.0
20260906010707 60 142 0.0 0.0 0.00 0.00 0.00 99 1009.0
20260906010207 60 180 0.0 0.0 0.00 0.00 0.00 99 1009.0
20260906005707 60 180 0.0 0.0 0.00 0.00 0.00 99 1009.0
20260906005207 60 108 0.0 0.0 0.00 0.00 0.00 99 1009.0
20260906004707 60 118 0.0 0.0 0.00 0.00 0.00 99 1009.0
20260906004207 60 117 0.0 0.0 0.00 0.00 0.00 99 1009.0
20260906003707 60 157 0.0 0.0 0.00 0.00 0.00 99 1009.0
20260906003207 60 157 0.0 0.0 0.00 0.00 0.00 99 1009.0
20260906002707 60 157 0.0 0.0 0.00 0.00 0.00 99 1009.0
20260906002207 60 157 0.0 0.0 0.00 0.00 0.00 99 1009.0
20260906001707 60 157 0.0 0.0 0.00 0.00 0.00 99 1009.0
20260906001207 60 157 0.0 0.0 0.00 0.00 0.00 99 1009.0
20260906000707 61 157 0.0 0.0 0.00 0.00 0.00 99 1009.0
20260906000207 61 157 0.0 0.0 0.00 0.00 0.00 99 1008.2
20260905235707 61 157 0.0 0.0 0.00 0.00 0.00 99 1008.2
20260905235207 61 157 0.0 0.0 0.00 0.00 0.00 99 1009.0
20260905234707 62 142 0.0 0.0 0.00 0.00 0.00 99 1009.0
20260905234207 62 135 0.0 0.0 0.00 0.00 0.00 99 1009.0
20260905233707 63 135 0.0 0.0 0.00 0.00 0.00 99 1009.0
20260905233207 63 100 0.0 0.0 0.00 0.00 0.00 99 1009.0
20260905232707 63 86 0.0 0.0 0.00 0.00 0.00 99 1009.0
20260905232207 64 135 0.0 0.0 0.00 0.00 0.00 99 1008.2
20260905231707 64 102 0.0 0.0 0.00 0.00 0.00 99 1008.2
20260905231207 64 63 0.0 0.0 0.00 0.00 0.00 99 1009.0
20260905230707 65 79 0.0 0.0 0.00 0.00 0.00 99 1009.0
20260905230207 66 106 0.0 0.0 0.00 0.00 0.00 99 1008.2
20260905225707 67 137 0.0 0.0 0.00 0.00 0.00 99 1008.2
20260905225207 69 142 0.0 0.0 0.00 0.00 0.00 99 1009.0
20260905224707 71 135 0.0 0.0 0.00 0.00 0.00 99 1008.2
20260905224207 72 112 0.0 0.0 0.00 0.00 0.00 99 1009.0
20260905223707 74 336 0.0 0.0 0.00 0.00 0.00 99 1008.2
20260905223207 77 175 0.0 0.0 0.00 0.00 0.00 99 1009.0
20260905222707 80 167 0.0 0.0 0.00 0.00 0.00 99 1009.0
20260905222207 82 126 0.0 0.0 0.00 0.00 0.00 99 1009.0
20260905221707 83 130 0.0 0.0 0.00 0.00 0.00 99 1009.0
20260905221207 82 125 0.0 0.0 0.00 0.00 0.00 99 1008.2
20260905220707 81 294 0.0 0.0 0.00 0.00 0.00 99 1008.1
20260905220207 0 356 0.0 0.0 0.00 0.00 0.00 99 1008.0
20260905215707 79 42 0.0 0.0 0.00 0.00 0.00 99 1008.0
20260905215207 74 2 0.0 0.0 0.00 0.00 0.00 99 1008.0
20260905214707 73 77 0.0 0.0 0.00 0.00 0.00 99 1008.0
20260905214207 72 65 0.0 0.0 0.00 0.00 0.00 99 1008.0
20260905213707 72 149 0.0 0.0 0.00 0.00 0.00 99 1008.0
20260905213207 71 172 0.0 0.0 0.00 0.00 0.00 99 1008.0
20260905212707 71 122 0.0 0.0 0.00 0.00 0.00 99 1008.0
20260905212207 71 327 0.0 0.0 0.00 0.00 0.00 99 1008.0
20260905211707 71 337 0.0 0.0 0.00 0.00 0.00 99 1008.0
20260905211207 71 0 0.0 0.0 0.00 0.00 0.00 99 1008.0
20260905210707 70 347 0.0 0.0 0.00 0.00 0.00 99 1008.0
20260905210207 69 99 0.0 0.0 0.00 0.00 0.00 99 1008.0
20260905205707 69 33 0.0 0.0 0.00 0.00 0.00 99 1008.0
20260905205207 69 49 0.0 0.0 0.00 0.00 0.00 99 1008.0
20260905204707 69 101 0.0 0.0 0.00 0.00 0.00 99 1008.0
20260905204207 69 8 0.0 0.0 0.00 0.00 0.00 99 1008.0
20260905203707 69 4 0.0 0.0 0.00 0.00 0.00 99 1008.0
20260905203207 69 4 0.0 0.0 0.00 0.00 0.00 99 1008.0
20260905202707 69 311 0.0 0.0 0.00 0.00 0.00 99 1008.0
20260905202207 68 291 0.0 0.0 0.00 0.00 0.00 99 1008.0
20260905201707 68 302 0.0 0.0 0.00 0.00 0.00 99 1008.0
20260905201207 68 315 0.0 0.0 0.00 0.00 0.00 99 1008.0
20260905200707 69 299 0.0 0.0 0.00 0.00 0.00 99 1008.0
20260905200207 72 129 0.0 0.0 0.00 0.00 0.00 99 1008.0
20260905195707 74 132 0.0 0.0 0.00 0.00 0.00 99 1008.0
20260905195207 79 139 0.0 1.7 0.00 0.00 0.00 99 1008.0
20260905194707 83 138 0.0 2.6 0.00 0.00 0.00 99 1008.0
20260905194207 87 95 0.0 2.6 0.00 0.00 0.00 99 1008.0
20260905193707 89 134 0.0 0.0 0.00 0.00 0.00 99 1008.0
20260905193207 89 322 0.0 0.0 0.00 0.00 0.00 99 1008.0
20260905192207 85 95 0.0 0.0 0.00 0.00 0.00 99 1008.0
20260905191707 84 49 0.0 0.0 0.00 0.00 0.00 99 1008.0
20260905191207 83 2 0.0 0.0 0.00 0.00 0.00 99 1008.0
20260905190707 82 352 0.0 0.0 0.00 0.00 0.00 99 1008.0
20260905190206 82 177 0.0 0.0 0.00 0.00 0.00 99 1008.0
20260905185707 82 129 0.0 0.0 0.00 0.00 0.00 99 1008.0
20260905185207 83 139 0.0 0.0 0.00 0.00 0.00 99 1008.0
20260905184707 83 145 0.0 0.0 0.00 0.00 0.00 99 1008.0
20260905184206 83 162 0.0 0.0 0.00 0.00 0.00 99 1008.0
20260905183707 83 171 0.0 0.0 0.00 0.00 0.00 99 1008.0
20260905183207 82 90 0.0 0.0 0.00 0.00 0.00 99 1008.0
20260905182707 80 152 0.0 0.0 0.00 0.00 0.00 99 1008.0
20260905182206 80 135 0.0 0.0 0.00 0.00 0.00 99 1008.0
20260905181707 81 90 0.0 0.0 0.00 0.00 0.00 99 1008.0
20260905181206 81 101 0.0 0.0 0.00 0.00 0.00 99 1008.0
20260905180706 81 141 0.0 0.0 0.00 0.00 0.00 99 1008.0
20260905180206 81 95 0.0 0.0 0.00 0.00 0.00 99 1008.0
20260905175706 81 135 0.0 0.0 0.00 0.00 0.00 99 1008.0
20260905175206 82 97 0.0 0.0 0.00 0.00 0.00 99 1008.0
20260905174706 80 314 0.0 0.0 0.00 0.00 0.00 99 1008.0
20260905174206 78 86 0.0 0.0 0.00 0.00 0.00 99 1008.0
20260905173706 79 111 0.0 0.0 0.00 0.00 0.00 99 1008.0
20260905173206 80 322 0.0 0.0 0.00 0.00 0.00 99 1008.0
20260905172706 83 277 0.0 0.0 0.00 0.00 0.00 99 1008.0
20260905172206 84 74 0.0 0.0 0.00 0.00 0.00 99 1008.0
20260905171707 86 183 0.0 0.0 0.00 0.00 0.00 99 1008.0
20260905171206 85 268 0.0 0.0 0.00 0.00 0.00 99 1008.0
20260905170706 87 140 0.0 0.0 0.00 0.00 0.00 99 1008.0
20260905170206 91 147 0.0 0.0 0.00 0.00 0.00 99 1008.0
20260905165706 92 43 0.0 0.0 0.00 0.00 0.00 99 1008.0
20260905165206 90 185 0.0 0.0 0.00 0.00 0.00 99 1008.0
20260905164706 90 143 0.0 0.0 0.00 0.00 0.00 99 1008.0
20260905164206 92 95 0.0 0.0 0.00 0.00 0.00 99 1008.0
20260905163706 91 135 0.0 0.0 0.00 0.00 0.00 99 1008.0
20260905163206 89 132 0.0 0.0 0.00 0.00 0.00 99 1008.0
20260905162706 87 181 0.0 0.0 0.00 0.00 0.00 99 1008.0
20260905162206 86 173 0.0 0.0 0.00 0.00 0.00 99 1008.0
20260905161707 83 14 0.0 0.0 0.00 0.00 0.00 99 1008.0
20260905161206 82 142 0.0 0.0 0.00 0.00 0.00 99 1008.0
20260905160706 82 99 0.0 0.0 0.00 0.00 0.00 99 1008.0
20260905160206 82 130 0.0 0.0 0.00 0.00 0.00 99 1008.0
20260905155706 83 45 0.0 2.6 0.00 0.00 0.00 99 1008.0
20260905155206 83 0 0.9 2.6 0.00 0.00 0.00 99 1008.0
20260905154706 83 0 0.0 2.6 0.00 0.00 0.00 99 1008.0
20260905154206 84 357 0.0 0.0 0.00 0.00 0.00 99 1008.0
20260905153706 83 351 0.0 0.0 0.00 0.00 0.00 99 1008.0
20260905153206 83 44 0.0 0.0 0.00 0.00 0.00 99 1008.0
20260905152706 84 4 0.0 0.0 0.00 0.00 0.00 99 1008.0
20260905152206 85 4 0.0 0.0 0.00 0.00 0.00 99 1008.0
20260905151706 86 349 0.0 0.0 0.00 0.00 0.00 99 1008.0
20260905151206 86 5 0.0 0.0 0.00 0.00 0.00 99 1008.0
20260905150706 85 137 0.0 0.0 0.00 0.00 0.00 99 1008.0
20260905150206 86 138 0.0 0.0 0.00 0.00 0.00 99 1008.0
20260905145706 86 134 0.0 0.0 0.00 0.00 0.00 99 1008.0
20260905145206 84 95 0.0 1.7 0.00 0.00 0.00 99 1008.0
20260905144706 83 146 0.0 1.7 0.00 0.00 0.00 99 1008.0
20260905144206 83 166 0.0 0.0 0.00 0.00 0.00 99 1008.0
20260905143706 83 8 0.0 0.0 0.00 0.00 0.00 99 1008.0
20260905143206 83 139 0.0 0.0 0.00 0.00 0.00 99 1008.0
20260905142706 81 353 0.0 0.0 0.00 0.00 0.00 99 1008.0
20260905142206 79 190 0.0 0.0 0.00 0.00 0.00 99 1008.0
20260905141706 80 140 0.0 0.0 0.00 0.00 0.00 99 1008.0
20260905141206 83 49 0.0 0.0 0.00 0.00 0.00 99 1008.0
20260905140706 85 93 0.0 0.0 0.00 0.00 0.00 99 1008.0
20260905140206 84 45 0.0 0.0 0.00 0.00 0.00 99 1008.0
20260905135706 83 88 0.0 0.0 0.00 0.00 0.00 99 1008.0
20260905135206 81 45 0.0 0.0 0.00 0.00 0.00 99 1008.0
20260905134706 78 307 0.0 0.0 0.00 0.00 0.00 99 1008.0
20260905134206 78 179 0.0 0.0 0.00 0.00 0.00 99 1008.0
20260905133706 79 156 0.0 0.0 0.00 0.00 0.00 99 1008.0
20260905133206 80 184 0.0 0.0 0.00 0.00 0.00 99 1008.0
20260905132706 81 141 0.0 0.0 0.00 0.00 0.00 99 1008.0
20260905132206 79 81 0.0 0.0 0.00 0.00 0.00 99 1008.0
20260905131706 77 138 0.0 0.0 0.00 0.00 0.00 99 1008.0
20260905131206 76 282 0.0 0.0 0.00 0.00 0.00 99 1008.0
20260905130706 74 92 0.0 0.0 0.00 0.00 0.00 99 1008.0
20260905130206 72 206 0.0 0.0 0.00 0.00 0.00 99 1008.0
20260905125706 68 9 0.0 0.0 0.00 0.00 0.00 99 1008.0
20260905125206 66 163 0.0 0.0 0.00 0.00 0.00 99 1008.0
20260905124706 65 53 0.0 0.0 0.00 0.00 0.00 99 1008.0
20260905124206 64 12 0.0 0.0 0.00 0.00 0.00 99 1008.0
20260905123706 64 189 0.0 0.0 0.00 0.00 0.00 99 1008.0
20260905123206 64 314 0.0 0.0 0.00 0.00 0.00 99 1008.0
20260905122706 64 244 0.0 0.0 0.00 0.00 0.00 99 1008.0
20260905122206 63 133 0.0 0.0 0.00 0.00 0.00 99 1008.0
20260905121706 63 127 0.0 0.0 0.00 0.00 0.00 99 1008.0
20260905121206 62 184 0.0 0.0 0.00 0.00 0.00 99 1008.0
20260905120706 62 140 0.0 0.0 0.00 0.00 0.00 99 1008.0
20260905120206 61 271 0.0 0.0 0.00 0.00 0.00 99 1008.0
20260905115706 61 178 0.0 0.0 0.00 0.00 0.00 99 1008.0
20260905115206 61 206 0.0 0.0 0.00 0.00 0.00 99 1008.0
20260905114706 60 110 0.0 0.0 0.00 0.00 0.00 99 1008.0
20260905114206 60 137 0.0 0.0 0.00 0.00 0.00 99 1008.0
20260905113706 60 136 0.0 0.0 0.00 0.00 0.00 99 1008.0
20260905113206 60 149 0.0 0.0 0.00 0.00 0.00 99 1008.0
20260905112706 59 175 0.0 0.0 0.00 0.00 0.00 99 1008.0
20260905112206 59 151 0.0 0.0 0.00 0.00 0.00 99 1008.0
20260905111706 59 124 0.0 0.0 0.00 0.00 0.00 99 1008.0
20260905111206 59 112 0.0 0.0 0.00 0.00 0.00 99 1008.0
20260905110706 59 102 0.0 0.0 0.00 0.00 0.00 99 1008.0
20260905110206 59 91 0.0 0.0 0.00 0.00 0.00 99 1008.0
20260905105706 60 94 0.0 0.0 0.00 0.00 0.00 99 1008.0
20260905105206 60 30 0.0 0.0 0.00 0.00 0.00 99 1008.0
20260905104706 60 234 0.0 0.0 0.00 0.00 0.00 99 1007.2
20260905104206 60 111 0.0 0.0 0.00 0.00 0.00 99 1008.0
20260905103706 60 144 0.0 0.0 0.00 0.00 0.00 99 1007.2
20260905103206 60 135 0.0 0.0 0.00 0.00 0.00 99 1008.0
20260905102706 60 129 0.0 0.0 0.00 0.00 0.00 99 1007.2
20260905102206 60 166 0.0 0.0 0.00 0.00 0.00 99 1007.1
20260905101706 60 138 0.0 0.0 0.00 0.00 0.00 99 1007.0
20260905101206 60 141 0.0 0.0 0.00 0.00 0.00 99 1007.0
20260905100706 61 197 0.0 0.0 0.00 0.00 0.00 99 1007.0
20260905100206 61 152 0.0 0.0 0.00 0.00 0.00 99 1007.0
20260905095706 60 106 0.0 0.0 0.00 0.00 0.00 99 1007.0
20260905095206 60 125 0.0 0.0 0.00 0.00 0.00 99 1007.0
20260905094706 60 121 0.0 0.0 0.00 0.00 0.00 99 1007.0
20260905094206 60 99 0.0 0.0 0.00 0.00 0.00 99 1007.0
20260905093706 60 137 0.0 0.0 0.00 0.00 0.00 99 1007.0